| time (UTC) | temp F | wind direction | speed knots | gust knots | rain 1hr in | rain 24hr in | rain mn in | humidity % | barometer mb |
| 20260508135654 | 49 | 338 | 9.6 | 13.9 | 0.00 | 0.04 | 0.01 | 73 | 1004.5 |
| 20260508135143 | 49 | 248 | 4.3 | 20.0 | 0.00 | 0.04 | 0.01 | 73 | 1004.4 |
| 20260508134633 | 49 | 270 | 5.2 | 20.0 | 0.00 | 0.04 | 0.01 | 73 | 1004.4 |
| 20260508134123 | 49 | 293 | 4.3 | 17.4 | 0.00 | 0.04 | 0.01 | 74 | 1004.4 |
| 20260508133612 | 48 | 270 | 5.2 | 17.4 | 0.00 | 0.04 | 0.01 | 75 | 1004.6 |
| 20260508133321 | 48 | 225 | 6.1 | 15.6 | 0.00 | 0.04 | 0.01 | 75 | 1004.5 |
| 20260508132816 | 47 | 270 | 5.2 | 11.3 | 0.00 | 0.04 | 0.01 | 76 | 1004.5 |
| 20260508132048 | 47 | 113 | 4.3 | 14.8 | 0.00 | 0.04 | 0.01 | 77 | 1004.5 |
| 20260508131543 | 47 | 270 | 8.7 | 14.8 | 0.00 | 0.04 | 0.01 | 77 | 1004.1 |
| 20260508131253 | 47 | 225 | 3.5 | 13.9 | 0.00 | 0.04 | 0.01 | 78 | 1004.3 |
| 20260508130736 | 47 | 203 | 7.8 | 13.9 | 0.00 | 0.04 | 0.01 | 78 | 1004.4 |
| 20260508130003 | 47 | 293 | 5.2 | 13.0 | 0.00 | 0.04 | 0.01 | 80 | 1004.6 |
| 20260508125452 | 47 | 293 | 1.7 | 12.2 | 0.00 | 0.04 | 0.01 | 79 | 1004.3 |
| 20260508124942 | 47 | 248 | 4.3 | 12.2 | 0.00 | 0.04 | 0.01 | 79 | 1004.1 |
| 20260508124659 | 47 | 293 | 4.3 | 12.2 | 0.00 | 0.04 | 0.01 | 79 | 1004.3 |
| 20260508123921 | 47 | 0 | 3.5 | 12.2 | 0.00 | 0.04 | 0.01 | 79 | 1004.2 |
| 20260508123412 | 47 | 248 | 7.0 | 14.8 | 0.00 | 0.04 | 0.01 | 79 | 1004.2 |
| 20260508122902 | 47 | 248 | 4.3 | 14.8 | 0.00 | 0.04 | 0.01 | 80 | 1004.5 |
| 20260508122352 | 47 | 293 | 2.6 | 13.9 | 0.00 | 0.04 | 0.01 | 80 | 1004.1 |
| 20260508122106 | 46 | 293 | 6.1 | 13.9 | 0.00 | 0.04 | 0.01 | 81 | 1003.9 |
| 20260508121331 | 46 | 293 | 6.1 | 13.9 | 0.00 | 0.04 | 0.01 | 81 | 1003.7 |
| 20260508120821 | 46 | 248 | 4.3 | 13.9 | 0.00 | 0.04 | 0.01 | 81 | 1003.6 |
| 20260508120311 | 46 | 270 | 3.5 | 18.2 | 0.00 | 0.04 | 0.01 | 82 | 1003.7 |
| 20260508115800 | 46 | 248 | 2.6 | 18.2 | 0.00 | 0.04 | 0.01 | 82 | 1003.6 |
| 20260508115250 | 46 | 203 | 7.0 | 15.6 | 0.00 | 0.04 | 0.01 | 83 | 1003.6 |
| 20260508115010 | 46 | 315 | 7.8 | 15.6 | 0.00 | 0.04 | 0.01 | 83 | 1003.6 |
| 20260508114231 | 46 | 248 | 7.8 | 12.2 | 0.00 | 0.04 | 0.01 | 84 | 1003.2 |
| 20260508113720 | 45 | 293 | 6.1 | 14.8 | 0.00 | 0.04 | 0.01 | 85 | 1003.1 |
| 20260508113211 | 45 | 270 | 1.7 | 14.8 | 0.00 | 0.04 | 0.01 | 86 | 1003.5 |
| 20260508112700 | 45 | 293 | 8.7 | 14.8 | 0.00 | 0.04 | 0.01 | 86 | 1003.3 |
| 20260508112150 | 45 | 225 | 6.1 | 13.9 | 0.00 | 0.04 | 0.01 | 87 | 1002.9 |
| 20260508111640 | 45 | 203 | 6.1 | 13.9 | 0.00 | 0.04 | 0.01 | 87 | 1003.1 |
| 20260508111130 | 45 | 225 | 2.6 | 13.9 | 0.00 | 0.04 | 0.01 | 88 | 1003.0 |
| 20260508110620 | 45 | 270 | 4.3 | 15.6 | 0.00 | 0.04 | 0.01 | 88 | 1003.1 |
| 20260508110110 | 45 | 248 | 4.3 | 15.6 | 0.00 | 0.04 | 0.01 | 88 | 1003.1 |
| 20260508105600 | 45 | 248 | 3.5 | 11.3 | 0.00 | 0.04 | 0.01 | 88 | 1003.2 |
| 20260508105050 | 45 | 270 | 1.7 | 11.3 | 0.00 | 0.04 | 0.01 | 88 | 1003.0 |
| 20260508104806 | 45 | 248 | 3.5 | 9.6 | 0.00 | 0.04 | 0.01 | 89 | 1002.8 |
| 20260508104029 | 45 | 270 | 3.5 | 13.0 | 0.00 | 0.04 | 0.01 | 89 | 1002.8 |
| 20260508103746 | 45 | 293 | 7.0 | 13.0 | 0.00 | 0.04 | 0.01 | 89 | 1002.8 |
| 20260508102609 | 45 | 293 | 7.0 | 14.8 | 0.00 | 0.04 | 0.01 | 90 | 1002.6 |
| 20260508102059 | 45 | 293 | 7.0 | 14.8 | 0.00 | 0.04 | 0.01 | 90 | 1002.6 |
| 20260508101550 | 45 | 225 | 3.5 | 13.9 | 0.00 | 0.04 | 0.01 | 90 | 1002.7 |
| 20260508100529 | 45 | 338 | 1.7 | 11.3 | 0.00 | 0.04 | 0.01 | 90 | 1002.4 |
| 20260508100019 | 45 | 180 | 7.0 | 11.3 | 0.00 | 0.04 | 0.01 | 91 | 1002.4 |
| 20260508095509 | 45 | 248 | 3.5 | 11.3 | 0.00 | 0.04 | 0.01 | 91 | 1002.2 |
| 20260508094959 | 45 | 315 | 3.5 | 9.6 | 0.00 | 0.04 | 0.01 | 91 | 1002.2 |
| 20260508094449 | 45 | 270 | 3.5 | 9.6 | 0.00 | 0.04 | 0.01 | 92 | 1002.1 |
| 20260508093939 | 45 | 315 | 4.3 | 9.6 | 0.00 | 0.04 | 0.01 | 92 | 1001.8 |
| 20260508093429 | 45 | 270 | 3.5 | 14.8 | 0.00 | 0.04 | 0.01 | 92 | 1001.8 |
| 20260508092919 | 45 | 315 | 3.5 | 14.8 | 0.00 | 0.04 | 0.01 | 92 | 1001.7 |
| 20260508092408 | 45 | 225 | 3.5 | 11.3 | 0.00 | 0.04 | 0.01 | 92 | 1001.7 |
| 20260508091858 | 45 | 270 | 3.5 | 11.3 | 0.00 | 0.04 | 0.01 | 91 | 1001.7 |
| 20260508091347 | 45 | 248 | 6.1 | 11.3 | 0.00 | 0.04 | 0.01 | 90 | 1001.9 |
| 20260508090837 | 46 | 270 | 3.5 | 15.6 | 0.00 | 0.04 | 0.01 | 88 | 1001.6 |
| 20260508090328 | 46 | 0 | 4.3 | 15.6 | 0.00 | 0.04 | 0.01 | 86 | 1001.7 |
| 20260508085818 | 46 | 248 | 5.2 | 12.2 | 0.00 | 0.04 | 0.01 | 84 | 1001.5 |
| 20260508085307 | 46 | 293 | 3.5 | 13.9 | 0.00 | 0.04 | 0.01 | 84 | 1001.6 |
| 20260508084758 | 46 | 158 | 4.3 | 13.9 | 0.00 | 0.04 | 0.01 | 84 | 1001.5 |
| 20260508084247 | 46 | 248 | 3.5 | 13.9 | 0.00 | 0.04 | 0.01 | 85 | 1001.6 |
| 20260508083739 | 46 | 248 | 1.7 | 14.8 | 0.00 | 0.05 | 0.01 | 85 | 1001.6 |
| 20260508083447 | 46 | 270 | 7.0 | 14.8 | 0.00 | 0.05 | 0.01 | 84 | 1001.6 |
| 20260508082717 | 46 | 293 | 4.3 | 13.0 | 0.00 | 0.05 | 0.01 | 84 | 1001.5 |
| 20260508082206 | 46 | 90 | 6.1 | 15.6 | 0.00 | 0.05 | 0.01 | 83 | 1001.5 |
| 20260508081706 | 46 | 225 | 6.1 | 15.6 | 0.00 | 0.05 | 0.01 | 83 | 1001.6 |
| 20260508081403 | 46 | 225 | 7.0 | 9.6 | 0.00 | 0.05 | 0.01 | 83 | 1001.7 |
| 20260508080637 | 46 | 270 | 3.5 | 9.6 | 0.00 | 0.05 | 0.01 | 84 | 1001.8 |
| 20260508075617 | 46 | 248 | 3.5 | 12.2 | 0.00 | 0.05 | 0.01 | 84 | 1001.6 |
| 20260508075105 | 46 | 293 | 3.5 | 14.8 | 0.00 | 0.06 | 0.01 | 85 | 1001.5 |
| 20260508074556 | 46 | 225 | 7.0 | 14.8 | 0.00 | 0.06 | 0.01 | 86 | 1001.6 |
| 20260508074046 | 46 | 225 | 1.7 | 14.8 | 0.00 | 0.06 | 0.01 | 87 | 1001.7 |
| 20260508073535 | 46 | 293 | 5.2 | 13.9 | 0.00 | 0.07 | 0.01 | 87 | 1001.7 |
| 20260508073257 | 46 | 293 | 3.5 | 11.3 | 0.00 | 0.07 | 0.01 | 88 | 1001.9 |
| 20260508072516 | 46 | 23 | 3.5 | 14.8 | 0.00 | 0.07 | 0.01 | 88 | 1001.9 |
| 20260508072005 | 46 | 270 | 5.2 | 14.8 | 0.00 | 0.07 | 0.01 | 88 | 1001.7 |
| 20260508071455 | 46 | 293 | 3.5 | 12.2 | 0.00 | 0.07 | 0.01 | 88 | 1001.9 |
| 20260508070945 | 46 | 180 | 4.3 | 12.2 | 0.00 | 0.07 | 0.01 | 88 | 1002.0 |
| 20260508070435 | 46 | 248 | 3.5 | 9.6 | 0.00 | 0.07 | 0.01 | 89 | 1002.0 |
| 20260508065930 | 46 | 338 | 1.7 | 13.9 | 0.00 | 0.07 | 0.01 | 89 | 1001.9 |
| 20260508065414 | 46 | 180 | 6.1 | 13.9 | 0.00 | 0.09 | 0.01 | 89 | 1002.1 |
| 20260508064904 | 46 | 180 | 7.0 | 13.0 | 0.00 | 0.09 | 0.01 | 89 | 1002.1 |
| 20260508064354 | 46 | 293 | 4.3 | 13.9 | 0.00 | 0.09 | 0.01 | 89 | 1002.2 |
| 20260508063844 | 46 | 203 | 2.6 | 13.9 | 0.00 | 0.10 | 0.01 | 88 | 1002.2 |
| 20260508063334 | 47 | 248 | 4.3 | 17.4 | 0.00 | 0.10 | 0.01 | 87 | 1002.1 |
| 20260508062824 | 47 | 293 | 8.7 | 17.4 | 0.00 | 0.11 | 0.01 | 85 | 1002.1 |
| 20260508062534 | 47 | 293 | 5.2 | 13.9 | 0.00 | 0.12 | 0.01 | 84 | 1002.2 |
| 20260508061804 | 48 | 293 | 3.5 | 13.0 | 0.00 | 0.14 | 0.01 | 83 | 1002.4 |
| 20260508061253 | 48 | 338 | 5.2 | 11.3 | 0.00 | 0.15 | 0.01 | 83 | 1002.4 |
| 20260508060743 | 48 | 270 | 5.2 | 13.9 | 0.00 | 0.17 | 0.01 | 84 | 1002.3 |
| 20260508060234 | 48 | 225 | 4.3 | 13.9 | 0.00 | 0.19 | 0.01 | 84 | 1002.4 |
| 20260508055723 | 48 | 293 | 3.5 | 13.9 | 0.00 | 0.19 | 0.01 | 85 | 1002.2 |
| 20260508055434 | 47 | 248 | 3.5 | 13.9 | 0.00 | 0.19 | 0.01 | 85 | 1002.3 |
| 20260508054703 | 47 | 248 | 4.3 | 13.0 | 0.00 | 0.21 | 0.01 | 86 | 1002.3 |
| 20260508054153 | 47 | 293 | 4.3 | 13.0 | 0.00 | 0.21 | 0.01 | 87 | 1002.3 |
| 20260508053643 | 47 | 293 | 4.3 | 12.2 | 0.00 | 0.22 | 0.01 | 88 | 1002.3 |
| 20260508053138 | 47 | 293 | 3.5 | 12.2 | 0.00 | 0.23 | 0.01 | 89 | 1002.2 |
| 20260508052623 | 47 | 270 | 3.5 | 12.2 | 0.00 | 0.24 | 0.01 | 89 | 1002.2 |
| 20260508052112 | 47 | 225 | 2.6 | 13.9 | 0.00 | 0.24 | 0.01 | 90 | 1002.2 |
| 20260508051602 | 47 | 293 | 2.6 | 13.9 | 0.00 | 0.24 | 0.01 | 91 | 1002.1 |
| 20260508051052 | 47 | 270 | 5.2 | 13.0 | 0.00 | 0.24 | 0.01 | 92 | 1002.2 |
| 20260508050542 | 47 | 270 | 7.0 | 13.0 | 0.00 | 0.24 | 0.01 | 92 | 1002.2 |
| 20260508050253 | 47 | 315 | 3.5 | 11.3 | 0.00 | 0.24 | 0.01 | 93 | 1002.0 |
| 20260508045524 | 47 | 225 | 7.0 | 11.3 | 0.00 | 0.24 | 0.01 | 94 | 1002.1 |
| 20260508045012 | 47 | 248 | 2.6 | 9.6 | 0.00 | 0.24 | 0.01 | 94 | 1001.9 |
| 20260508044502 | 47 | 270 | 1.7 | 13.0 | 0.00 | 0.26 | 0.01 | 95 | 1001.9 |
| 20260508043952 | 47 | 270 | 7.0 | 13.0 | 0.00 | 0.29 | 0.01 | 95 | 1001.8 |
| 20260508043707 | 47 | 338 | 4.3 | 9.6 | 0.00 | 0.34 | 0.01 | 96 | 1001.9 |
| 20260508042932 | 47 | 180 | 3.5 | 11.3 | 0.00 | 0.43 | 0.01 | 96 | 1002.0 |
| 20260508042422 | 47 | 293 | 2.6 | 14.8 | 0.00 | 0.61 | 0.01 | 96 | 1001.9 |
| 20260508041911 | 47 | 315 | 4.3 | 14.8 | 0.00 | 0.83 | 0.01 | 97 | 1001.8 |
| 20260508041402 | 48 | 338 | 3.5 | 11.3 | 0.00 | 1.05 | 0.01 | 97 | 1001.7 |
| 20260508041108 | 48 | 248 | 3.5 | 12.2 | 0.00 | 1.05 | 0.01 | 97 | 1001.5 |
| 20260508040341 | 48 | 225 | 3.5 | 13.0 | 0.01 | 1.05 | 0.01 | 97 | 1001.8 |
| 20260508035831 | 48 | 248 | 4.3 | 13.0 | 0.01 | 1.11 | 0.01 | 97 | 1001.6 |
| 20260508035321 | 48 | 270 | 2.6 | 11.3 | 0.01 | 1.12 | 0.01 | 97 | 1001.7 |
| 20260508034812 | 48 | 270 | 5.2 | 12.2 | 0.01 | 1.15 | 0.01 | 97 | 1001.7 |
| 20260508034300 | 48 | 270 | 4.3 | 12.2 | 0.01 | 1.16 | 0.01 | 97 | 1001.6 |
| 20260508033750 | 48 | 270 | 4.3 | 12.2 | 0.01 | 1.16 | 0.01 | 97 | 1001.6 |
| 20260508033240 | 48 | 270 | 5.2 | 11.3 | 0.01 | 1.16 | 0.01 | 97 | 1001.6 |
| 20260508032730 | 48 | 270 | 2.6 | 11.3 | 0.01 | 1.16 | 0.01 | 97 | 1001.8 |
| 20260508032221 | 48 | 248 | 5.2 | 12.2 | 0.01 | 1.16 | 0.01 | 97 | 1001.7 |
| 20260508031710 | 48 | 225 | 4.3 | 12.2 | 0.01 | 1.16 | 0.01 | 97 | 1001.7 |
| 20260508031201 | 48 | 248 | 3.5 | 13.0 | 0.02 | 1.16 | 0.01 | 97 | 1001.3 |
| 20260508030913 | 48 | 248 | 7.0 | 13.0 | 0.01 | 1.15 | 0.01 | 97 | 1001.6 |
| 20260508030140 | 49 | 338 | 3.5 | 15.6 | 0.01 | 1.15 | 0.00 | 97 | 1001.4 |
| 20260508025854 | 49 | 248 | 6.1 | 15.6 | 0.01 | 1.15 | 1.15 | 97 | 1001.3 |
| 20260508025119 | 49 | 248 | 3.5 | 12.2 | 0.02 | 1.15 | 1.15 | 97 | 1001.4 |
| 20260508024618 | 49 | 270 | 3.5 | 12.2 | 0.02 | 1.15 | 1.15 | 97 | 1001.3 |
| 20260508023549 | 49 | 248 | 7.0 | 15.6 | 0.03 | 1.15 | 1.15 | 97 | 1001.3 |
| 20260508023038 | 49 | 248 | 7.0 | 14.8 | 0.03 | 1.15 | 1.15 | 97 | 1001.1 |
| 20260508022528 | 49 | 270 | 5.2 | 14.8 | 0.03 | 1.15 | 1.15 | 97 | 1001.3 |
| 20260508022019 | 49 | 248 | 7.0 | 13.0 | 0.03 | 1.15 | 1.15 | 97 | 1001.2 |
| 20260508021509 | 49 | 338 | 3.5 | 11.3 | 0.03 | 1.14 | 1.15 | 97 | 1001.2 |
| 20260508020958 | 49 | 270 | 5.2 | 13.9 | 0.03 | 1.14 | 1.14 | 97 | 1001.0 |
| 20260508020448 | 49 | 225 | 7.0 | 13.9 | 0.03 | 1.14 | 1.14 | 97 | 1001.3 |
| 20260508020158 | 49 | 225 | 6.1 | 13.0 | 0.03 | 1.14 | 1.14 | 97 | 1001.2 |
| 20260508015428 | 50 | 203 | 4.3 | 13.9 | 0.03 | 1.14 | 1.14 | 97 | 1001.4 |
| 20260508015137 | 50 | 248 | 3.5 | 13.9 | 0.02 | 1.13 | 1.13 | 97 | 1001.5 |
| 20260508014637 | 50 | 225 | 5.2 | 9.6 | 0.02 | 1.13 | 1.13 | 96 | 1001.5 |
| 20260508013858 | 50 | 248 | 3.5 | 11.3 | 0.01 | 1.12 | 1.12 | 96 | 1001.6 |
| 20260508013348 | 50 | 315 | 1.7 | 12.2 | 0.01 | 1.12 | 1.12 | 96 | 1001.6 |
| 20260508012840 | 50 | 248 | 3.5 | 12.2 | 0.01 | 1.12 | 1.12 | 96 | 1001.5 |
| 20260508012327 | 50 | 270 | 6.1 | 13.9 | 0.01 | 1.12 | 1.12 | 96 | 1001.6 |
| 20260508011817 | 50 | 270 | 5.2 | 13.9 | 0.00 | 1.12 | 1.12 | 95 | 1001.8 |
| 20260508011530 | 51 | 293 | 2.6 | 11.3 | 0.00 | 1.12 | 1.12 | 95 | 1001.9 |
| 20260508010757 | 51 | 270 | 5.2 | 11.3 | 0.00 | 1.12 | 1.12 | 94 | 1001.9 |
| 20260508010247 | 51 | 248 | 1.7 | 13.0 | 0.00 | 1.12 | 1.12 | 94 | 1002.1 |
| 20260508005737 | 51 | 248 | 3.5 | 13.0 | 0.00 | 1.12 | 1.12 | 94 | 1001.9 |
| 20260508005458 | 51 | 248 | 3.5 | 12.2 | 0.00 | 1.12 | 1.12 | 93 | 1001.8 |
| 20260508004716 | 51 | 248 | 5.2 | 13.0 | 0.00 | 1.12 | 1.12 | 92 | 1001.6 |
| 20260508004206 | 51 | 0 | 6.1 | 13.9 | 0.00 | 1.12 | 1.12 | 91 | 1001.8 |
| 20260508003657 | 52 | 203 | 3.5 | 13.9 | 0.00 | 1.12 | 1.12 | 90 | 1002.2 |
| 20260508003415 | 52 | 248 | 4.3 | 13.9 | 0.00 | 1.12 | 1.12 | 88 | 1002.2 |
| 20260508002636 | 53 | 270 | 5.2 | 15.6 | 0.00 | 1.12 | 1.12 | 87 | 1002.0 |
| 20260508002126 | 53 | 248 | 7.0 | 15.6 | 0.00 | 1.12 | 1.12 | 86 | 1001.9 |
| 20260508001617 | 53 | 225 | 4.3 | 13.0 | 0.00 | 1.12 | 1.12 | 85 | 1001.8 |
| 20260508001106 | 53 | 225 | 3.5 | 18.2 | 0.00 | 1.12 | 1.12 | 85 | 1001.8 |
| 20260508000815 | 53 | 248 | 6.1 | 18.2 | 0.00 | 1.12 | 1.12 | 84 | 1001.9 |
| 20260508000334 | 53 | 270 | 3.5 | 11.3 | 0.00 | 1.12 | 1.12 | 85 | 1001.8 |
| 20260507235536 | 53 | 203 | 5.2 | 11.3 | 0.00 | 1.12 | 1.12 | 84 | 1001.4 |
| 20260507235025 | 53 | 293 | 4.3 | 14.8 | 0.00 | 1.12 | 1.12 | 84 | 1001.7 |
| 20260507234515 | 53 | 248 | 7.0 | 14.8 | 0.00 | 1.12 | 1.12 | 84 | 1001.5 |
| 20260507234006 | 53 | 203 | 4.3 | 13.9 | 0.00 | 1.12 | 1.12 | 84 | 1001.5 |
| 20260507233456 | 53 | 248 | 3.5 | 14.8 | 0.00 | 1.12 | 1.12 | 84 | 1001.5 |
| 20260507233222 | 53 | 293 | 6.1 | 14.8 | 0.00 | 1.12 | 1.12 | 84 | 1001.8 |
| 20260507232434 | 54 | 270 | 2.6 | 13.0 | 0.00 | 1.12 | 1.12 | 85 | 1001.6 |
| 20260507231925 | 54 | 23 | 3.5 | 11.3 | 0.00 | 1.12 | 1.12 | 85 | 1001.7 |
| 20260507231645 | 54 | 270 | 6.1 | 11.3 | 0.00 | 1.12 | 1.12 | 86 | 1001.7 |
| 20260507230905 | 54 | 270 | 1.7 | 9.6 | 0.00 | 1.12 | 1.12 | 86 | 1001.9 |
| 20260507230355 | 53 | 270 | 6.1 | 9.6 | 0.00 | 1.12 | 1.12 | 87 | 1001.8 |
| 20260507225844 | 53 | 248 | 3.5 | 13.0 | 0.00 | 1.12 | 1.12 | 88 | 1001.9 |
| 20260507225334 | 53 | 248 | 5.2 | 13.0 | 0.00 | 1.12 | 1.12 | 88 | 1002.0 |
| 20260507225053 | 53 | 270 | 7.0 | 13.0 | 0.00 | 1.12 | 1.12 | 87 | 1002.2 |
| 20260507224532 | 54 | 293 | 2.6 | 13.0 | 0.00 | 1.12 | 1.12 | 87 | 1002.4 |
| 20260507224029 | 54 | 225 | 4.3 | 12.2 | 0.00 | 1.12 | 1.12 | 87 | 1002.4 |
| 20260507223254 | 54 | 293 | 3.5 | 12.2 | 0.00 | 1.12 | 1.12 | 86 | 1002.3 |
| 20260507222744 | 54 | 270 | 6.1 | 11.3 | 0.00 | 1.12 | 1.12 | 85 | 1002.1 |
| 20260507222500 | 54 | 225 | 6.1 | 12.2 | 0.00 | 1.12 | 1.12 | 85 | 1002.2 |
| 20260507221724 | 54 | 293 | 6.1 | 12.2 | 0.00 | 1.12 | 1.12 | 85 | 1001.8 |
| 20260507220703 | 55 | 270 | 1.7 | 11.3 | 0.00 | 1.12 | 1.12 | 84 | 1001.7 |
| 20260507220415 | 55 | 225 | 2.6 | 13.0 | 0.00 | 1.12 | 1.12 | 83 | 1001.7 |
| 20260507215642 | 55 | 315 | 7.0 | 13.0 | 0.00 | 1.12 | 1.12 | 82 | 1001.6 |
| 20260507215133 | 55 | 248 | 2.6 | 9.6 | 0.00 | 1.12 | 1.12 | 81 | 1001.4 |
| 20260507214622 | 55 | 225 | 1.7 | 9.6 | 0.00 | 1.12 | 1.12 | 81 | 1001.4 |
| 20260507214112 | 55 | 248 | 1.7 | 9.6 | 0.00 | 1.12 | 1.12 | 81 | 1001.4 |
| 20260507213603 | 55 | 270 | 3.5 | 11.3 | 0.00 | 1.12 | 1.12 | 81 | 1001.2 |
| 20260507213313 | 55 | 293 | 5.2 | 11.3 | 0.00 | 1.12 | 1.12 | 80 | 1001.3 |
| 20260507212542 | 55 | 315 | 3.5 | 9.6 | 0.00 | 1.12 | 1.12 | 80 | 1001.6 |
| 20260507212032 | 55 | 248 | 3.5 | 9.6 | 0.00 | 1.12 | 1.12 | 80 | 1001.6 |
| 20260507211531 | 56 | 270 | 1.7 | 9.6 | 0.00 | 1.12 | 1.12 | 79 | 1001.4 |
| 20260507211012 | 55 | 248 | 3.5 | 9.6 | 0.00 | 1.12 | 1.12 | 79 | 1001.6 |
| 20260507210502 | 56 | 293 | 4.3 | 12.2 | 0.00 | 1.12 | 1.12 | 78 | 1001.4 |
| 20260507205951 | 56 | 293 | 4.3 | 13.0 | 0.00 | 1.12 | 1.12 | 78 | 1001.4 |
| 20260507205441 | 56 | 225 | 2.6 | 13.0 | 0.00 | 1.12 | 1.12 | 78 | 1001.7 |
| 20260507204932 | 56 | 293 | 3.5 | 11.3 | 0.00 | 1.12 | 1.12 | 78 | 1001.6 |
| 20260507204421 | 56 | 293 | 3.5 | 11.3 | 0.00 | 1.12 | 1.12 | 78 | 1001.5 |
| 20260507203911 | 56 | 270 | 2.6 | 9.6 | 0.00 | 1.12 | 1.12 | 78 | 1001.6 |
| 20260507203401 | 57 | 293 | 3.5 | 9.6 | 0.00 | 1.12 | 1.12 | 77 | 1001.4 |
| 20260507202851 | 57 | 248 | 2.6 | 12.2 | 0.00 | 1.12 | 1.12 | 77 | 1001.2 |
| 20260507202557 | 57 | 248 | 3.5 | 14.8 | 0.00 | 1.12 | 1.12 | 76 | 1001.1 |
| 20260507201831 | 57 | 203 | 4.3 | 14.8 | 0.00 | 1.12 | 1.12 | 76 | 1001.1 |
| 20260507201321 | 57 | 225 | 6.1 | 12.2 | 0.00 | 1.12 | 1.12 | 75 | 1001.2 |
| 20260507200811 | 57 | 248 | 3.5 | 12.2 | 0.00 | 1.12 | 1.12 | 75 | 1000.9 |
| 20260507200300 | 57 | 315 | 3.5 | 11.3 | 0.00 | 1.12 | 1.12 | 75 | 1000.2 |
| 20260507195752 | 57 | 270 | 4.3 | 9.6 | 0.00 | 1.12 | 1.12 | 76 | 999.9 |
| 20260507195500 | 57 | 270 | 2.6 | 11.3 | 0.00 | 1.12 | 1.12 | 76 | 999.6 |
| 20260507194730 | 57 | 248 | 3.5 | 11.3 | 0.00 | 1.12 | 1.12 | 77 | 999.7 |
| 20260507194221 | 57 | 248 | 3.5 | 9.6 | 0.00 | 1.12 | 1.12 | 77 | 999.8 |
| 20260507193710 | 57 | 270 | 3.5 | 13.0 | 0.00 | 1.12 | 1.12 | 77 | 999.6 |
| 20260507193200 | 57 | 225 | 2.6 | 13.0 | 0.00 | 1.12 | 1.12 | 77 | 1000.0 |
| 20260507192649 | 57 | 270 | 2.6 | 11.3 | 0.00 | 1.12 | 1.12 | 77 | 999.6 |
| 20260507192140 | 57 | 293 | 4.3 | 11.3 | 0.00 | 1.12 | 1.12 | 77 | 999.8 |
| 20260507191849 | 58 | 270 | 3.5 | 11.3 | 0.00 | 1.12 | 1.12 | 77 | 999.9 |
| 20260507191119 | 58 | 248 | 1.7 | 7.8 | 0.00 | 1.12 | 1.12 | 77 | 1000.4 |
| 20260507190609 | 58 | 293 | 1.7 | 7.8 | 0.00 | 1.12 | 1.12 | 77 | 1000.7 |
| 20260507190059 | 58 | 293 | 1.7 | 12.2 | 0.00 | 1.12 | 1.12 | 78 | 1001.0 |
| 20260507185549 | 58 | 315 | 1.7 | 13.0 | 0.00 | 1.12 | 1.12 | 78 | 1001.5 |
| 20260507185039 | 58 | 293 | 3.5 | 13.0 | 0.00 | 1.12 | 1.12 | 77 | 1001.0 |
| 20260507184529 | 58 | 293 | 1.7 | 12.2 | 0.00 | 1.12 | 1.12 | 77 | 1001.7 |
| 20260507184019 | 58 | 293 | 1.7 | 11.3 | 0.00 | 1.12 | 1.12 | 77 | 1001.5 |
| 20260507183730 | 58 | 248 | 3.5 | 9.6 | 0.00 | 1.12 | 1.12 | 77 | 1001.8 |
| 20260507183004 | 58 | 225 | 5.2 | 13.9 | 0.00 | 1.12 | 1.12 | 77 | 1001.5 |
| 20260507182448 | 58 | 225 | 3.5 | 17.4 | 0.00 | 1.12 | 1.12 | 77 | 1001.8 |
| 20260507181939 | 58 | 270 | 6.1 | 17.4 | 0.00 | 1.12 | 1.12 | 78 | 1002.2 |
| 20260507181428 | 58 | 315 | 5.2 | 9.6 | 0.00 | 1.12 | 1.12 | 78 | 1002.6 |
| 20260507180918 | 58 | 90 | 3.5 | 9.6 | 0.00 | 1.12 | 1.12 | 78 | 1002.9 |
| 20260507180408 | 58 | 248 | 2.6 | 13.0 | 0.00 | 1.12 | 1.12 | 79 | 1003.2 |
| 20260507175858 | 58 | 248 | 3.5 | 13.0 | 0.00 | 1.12 | 1.12 | 80 | 1003.2 |
| 20260507175347 | 58 | 270 | 3.5 | 9.6 | 0.00 | 1.12 | 1.12 | 79 | 1003.0 |
| 20260507174839 | 57 | 225 | 3.5 | 7.8 | 0.00 | 1.12 | 1.12 | 80 | 1002.7 |
| 20260507174327 | 57 | 315 | 1.7 | 7.0 | 0.00 | 1.12 | 1.12 | 81 | 1002.2 |
| 20260507173817 | 57 | 270 | 1.7 | 7.0 | 0.00 | 1.12 | 1.12 | 81 | 1002.1 |
| 20260507173525 | 57 | 248 | 1.7 | 7.0 | 0.00 | 1.12 | 1.12 | 81 | 1001.8 |
| 20260507172757 | 57 | 45 | 1.7 | 7.0 | 0.00 | 1.12 | 1.12 | 81 | 1001.2 |
| 20260507172510 | 56 | 270 | 2.6 | 6.1 | 0.00 | 1.12 | 1.12 | 81 | 1001.0 |
| 20260507171736 | 57 | 158 | 1.7 | 6.1 | 0.00 | 1.12 | 1.12 | 81 | 1000.9 |
| 20260507171226 | 57 | 248 | 2.6 | 9.6 | 0.00 | 1.12 | 1.12 | 80 | 1001.2 |
| 20260507170716 | 57 | 293 | 1.7 | 9.6 | 0.00 | 1.12 | 1.12 | 80 | 1001.8 |
| 20260507170206 | 57 | 248 | 2.6 | 9.6 | 0.00 | 1.12 | 1.12 | 80 | 1001.8 |
| 20260507165656 | 57 | 225 | 3.5 | 9.6 | 0.00 | 1.12 | 1.12 | 80 | 1002.0 |
| 20260507165147 | 57 | 225 | 3.5 | 9.6 | 0.00 | 1.12 | 1.12 | 81 | 1002.5 |
| 20260507164637 | 57 | 225 | 3.5 | 9.6 | 0.00 | 1.12 | 1.12 | 81 | 1002.7 |
| 20260507164347 | 57 | 293 | 1.7 | 11.3 | 0.00 | 1.12 | 1.12 | 81 | 1003.0 |
| 20260507163616 | 58 | 293 | 3.5 | 12.2 | 0.00 | 1.12 | 1.12 | 81 | 1003.1 |
| 20260507163106 | 58 | 203 | 4.3 | 12.2 | 0.00 | 1.12 | 1.12 | 81 | 1002.9 |
| 20260507162556 | 58 | 270 | 4.3 | 14.8 | 0.00 | 1.12 | 1.12 | 81 | 1003.3 |
| 20260507162046 | 58 | 293 | 4.3 | 14.8 | 0.00 | 1.12 | 1.12 | 81 | 1002.5 |
| 20260507161755 | 58 | 248 | 3.5 | 13.0 | 0.00 | 1.12 | 1.12 | 82 | 1001.8 |
| 20260507161025 | 58 | 248 | 3.5 | 13.0 | 0.00 | 1.12 | 1.12 | 83 | 1001.5 |
| 20260507160515 | 58 | 270 | 3.5 | 7.8 | 0.00 | 1.12 | 1.12 | 84 | 1001.2 |
| 20260507160005 | 59 | 338 | 2.6 | 7.8 | 0.00 | 1.12 | 1.12 | 86 | 1001.1 |
| 20260507155455 | 59 | 225 | 3.5 | 7.8 | 0.00 | 1.12 | 1.12 | 85 | 1001.2 |
| 20260507155206 | 59 | 248 | 3.5 | 7.8 | 0.00 | 1.12 | 1.12 | 85 | 1001.5 |
| 20260507154442 | 59 | 293 | 1.7 | 7.8 | 0.00 | 1.12 | 1.12 | 85 | 1001.3 |
| 20260507153924 | 59 | 203 | 4.3 | 7.8 | 0.00 | 1.12 | 1.12 | 85 | 1001.9 |
| 20260507153633 | 59 | 315 | 2.6 | 7.8 | 0.00 | 1.12 | 1.12 | 85 | 1002.0 |
| 20260507152904 | 59 | 270 | 1.7 | 7.8 | 0.00 | 1.12 | 1.12 | 84 | 1002.0 |
| 20260507152354 | 59 | 203 | 3.5 | 7.8 | 0.00 | 1.12 | 1.12 | 84 | 1001.4 |
| 20260507151844 | 59 | 203 | 5.2 | 9.6 | 0.00 | 1.12 | 1.12 | 85 | 1001.4 |
| 20260507151334 | 58 | 135 | 1.7 | 9.6 | 0.00 | 1.12 | 1.12 | 85 | 1001.7 |
| 20260507150824 | 58 | 225 | 3.5 | 9.6 | 0.00 | 1.12 | 1.12 | 86 | 1002.0 |
| 20260507150314 | 59 | 270 | 2.6 | 9.6 | 0.00 | 1.12 | 1.12 | 87 | 1001.8 |
| 20260507145804 | 59 | 270 | 4.3 | 9.6 | 0.00 | 1.12 | 1.12 | 87 | 1001.9 |
| 20260507145511 | 60 | 203 | 4.3 | 11.3 | 0.00 | 1.12 | 1.12 | 89 | 1002.5 |
| 20260507144743 | 60 | 248 | 3.5 | 11.3 | 0.00 | 1.12 | 1.12 | 89 | 1002.5 |
| 20260507144234 | 60 | 270 | 1.7 | 9.6 | 0.00 | 1.12 | 1.12 | 88 | 1002.4 |
| 20260507143724 | 60 | 293 | 2.6 | 5.2 | 0.00 | 1.12 | 1.12 | 89 | 1002.1 |
| 20260507143213 | 60 | 158 | 0.0 | 7.0 | 0.00 | 1.12 | 1.12 | 89 | 1001.3 |
| 20260507142703 | 60 | 225 | 0.0 | 7.0 | 0.00 | 1.12 | 1.12 | 88 | 1001.3 |
| 20260507142423 | 60 | 248 | 3.5 | 7.0 | 0.00 | 1.12 | 1.12 | 88 | 1001.8 |
| 20260507141643 | 60 | 248 | 2.6 | 5.2 | 0.00 | 1.12 | 1.12 | 88 | 1001.4 |
| 20260507141351 | 60 | 248 | 0.0 | 6.1 | 0.00 | 1.12 | 1.12 | 88 | 1001.0 |
| 20260507140625 | 60 | 248 | 0.9 | 7.0 | 0.00 | 1.12 | 1.12 | 88 | 1001.3 |
| 20260507140337 | 60 | 113 | 1.7 | 7.0 | 0.00 | 1.12 | 1.12 | 88 | 1001.6 |